#timestamp,LO_Frequency,Hit,StdDev 
1538121615.7,286046989.6,N
1538121635.5,286046986.3,N
1538121655.4,286046987.1,N
1538121675.2,286046987.0,N
1538121695.0,286046986.9,N
1538121695.9,286046986.9,N
1538121715.8,286046985.6,N
1538121735.6,286046984.3,N
1538121755.4,286046984.2,N
1538121775.3,286046984.6,N
1538121795.1,286046984.2,N
1538121815.8,286046984.3,N
1538121835.7,286046981.1,Y
1538121855.5,286046992.2,P
1538121875.4,286046993.5,P
1538121895.2,286046994.6,P
1538121915.0,286046993.9,Y
1538121915.9,286046993.9,P
1538121935.8,286046998.7,N
1538121955.6,286046998.8,N
1538121975.5,286046996.6,N
1538121995.3,286046998.6,N
1538122015.1,286046998.4,N
1538122035.9,286046997.0,N
1538122055.7,286046997.1,N
1538122075.5,286046997.1,N
1538122095.4,286046997.6,N
1538122115.2,286046995.3,N
1538122135.1,286046995.6,N
1538122136.0,286046995.6,N
1538122155.8,286046995.7,N
1538122175.6,286046995.4,N
1538122225.5,286046991.8,E
1538122235.4,286046996.8,N
1538122255.3,286047001.3,P
1538122275.1,286047002.1,N
1538122276.0,286047002.1,N
1538122295.8,286047000.9,N
1538122315.7,286046998.5,N
1538122335.5,286047000.5,N
1538122355.3,286046999.4,N
1538122375.2,286046996.2,N
1538122395.0,286046995.2,N
1538122395.9,286046995.2,N
1538122415.8,286046997.2,N
1538122435.6,286046998.0,N
1538122455.4,286046996.8,N
1538122475.3,286046997.7,N
1538122495.1,286046995.2,N
1538122515.8,286046995.6,N
1538122535.7,286046995.3,N
1538122555.5,286046995.5,N
1538122575.4,286046994.0,N
1538122595.2,286046994.3,N
1538122615.0,286046992.2,Y
1538122615.9,286046992.2,P
1538122635.8,286046995.9,N
1538122655.6,286046996.3,N
1538122675.4,286046994.5,N
1538122695.3,286046994.0,Y
1538122715.1,286047001.1,P
1538122735.9,286046998.2,N
1538122755.7,286046999.5,N
1538122775.5,286046999.5,N
1538122795.4,286046997.4,N
1538122815.2,286046999.1,N
1538122835.0,286046998.8,N
1538122835.9,286046998.8,N
1538122855.8,286046999.1,N
1538122875.6,286046997.3,N
1538122895.5,286046997.4,N
1538122915.3,286046997.5,N
1538122935.1,286046997.6,N
1538122955.9,286046994.9,Y
1538122975.7,286046997.2,P
1538122995.5,286046996.5,P
1538123015.4,286046997.5,P
1538123035.2,286046995.2,Y
1538123055.1,286046996.9,P
1538123056.0,286046996.9,P
1538123075.8,286046997.8,P
1538123095.6,286046997.6,Y
1538123115.5,286046998.7,P
1538123135.3,286046998.4,N
1538123155.1,286046998.6,N
1538123175.9,286047000.4,N
1538123195.7,286047000.7,N
1538123215.6,286046999.9,N
1538123235.4,286046999.0,N
1538123255.2,286046998.4,N
1538123275.1,286046998.5,N
1538123276.0,286046998.5,N
1538123295.8,286046998.6,N
1538123315.6,286047001.2,N
1538123335.5,286047001.1,N
1538123355.3,286046998.3,N
1538123375.2,286046999.1,N
1538123395.9,286046997.2,N
1538123415.7,286046996.1,Y
1538123435.6,286046995.8,P
1538123455.4,286046995.2,N
1538123475.2,286046994.9,P
1538123495.1,286046997.2,N
1538123496.0,286046997.2,N
1538123515.8,286046997.7,N
1538123535.7,286046997.8,N
1538123555.5,286046995.3,Y
1538123575.3,286046999.3,P
1538123595.2,286046997.6,N
1538123615.0,286046995.7,P
1538123615.9,286046995.7,Y
1538123635.8,286046998.4,P
1538123655.6,286047001.2,N
1538123675.4,286047000.3,N
1538123695.3,286046998.5,N
1538123715.1,286046999.0,N
1538123735.8,286046998.9,N
1538123755.7,286047000.4,N
1538123775.5,286047000.8,N
1538123795.4,286047000.3,N
1538123815.2,286047001.2,N
1538123835.0,286046998.6,N
1538123835.9,286046998.6,N
1538123855.8,286047000.9,N
1538123875.6,286046998.2,N
1538123895.4,286046999.6,N
1538123915.3,286046997.1,N
1538123935.1,286046997.1,N
1538123955.9,286046997.1,N
1538123975.7,286046997.2,N
1538123995.5,286046996.6,N
1538124015.4,286046994.9,Y
1538124035.2,286046999.6,P
1538124055.0,286046996.5,P
1538124055.9,286046996.5,N
1538124075.8,286046997.0,N
1538124095.6,286046995.1,Y
1538124115.5,286047001.0,P
1538124135.3,286046999.0,N
1538124155.1,286046996.7,N
1538124175.9,286046996.7,N
1538124195.7,286046999.5,N
1538124215.5,286046996.9,N
1538124235.4,286046999.1,N
1538124255.2,286046998.9,N
1538124275.1,286046999.5,N
1538124276.0,286046999.5,N
1538124295.8,286046999.3,N
1538124315.6,286047001.1,N
1538124335.5,286046998.9,N
1538124355.3,286046999.4,N
1538124375.2,286046997.0,N
1538124395.9,286046997.0,N
1538124415.7,286046996.6,N
1538124435.6,286046996.7,N
1538124455.4,286046997.5,N
1538124475.2,286046997.6,N
1538124495.1,286046995.5,Y
1538124496.0,286046995.5,P
1538124515.8,286046998.7,N
1538124535.7,286046999.6,N
1538124555.5,286046996.7,N
1538124575.3,286046996.6,N
1538124595.2,286046995.4,Y
1538124615.0,286046998.4,P
1538124615.9,286046998.4,P
1538124635.7,286046999.3,N
1538124655.6,286046999.0,N
1538124675.4,286047000.8,N
1538124695.3,286046998.5,N
1538124715.1,286046999.0,N
1538124716.0,286046999.0,N
1538124735.8,286046998.3,N
1538124755.7,286046999.0,N
1538124775.5,286046998.9,N
1538124795.3,286046998.4,N
1538124815.2,286046998.7,N
1538124835.0,286046998.9,N
1538124835.9,286046998.9,N
1538124855.8,286046996.8,Y
1538124875.6,286046997.4,P
1538124895.4,286046997.1,P
1538124915.3,286046998.4,N
1538124935.1,286046996.9,Y
1538124955.9,286046998.4,P
1538124975.7,286046999.6,N
1538124995.5,286046995.5,P
1538125015.4,286046993.7,Y
1538125035.2,286046993.8,P
1538125055.0,286046994.6,N
1538125055.9,286046994.6,P
1538125075.8,286046994.8,Y
1538125095.6,286046998.9,P
1538125115.5,286046997.4,N
1538125135.3,286046995.1,P
1538125155.1,286046996.0,N
1538125175.9,286046992.6,Y
1538125195.7,286046996.4,P
